• In Austria
  • List of Countries
  • For 7 days
  • Water Temperature
  • Satellite Maps
  • Weather Map
  • News
  • Weather Widgets
  • user-avatar
    Login

    Hourly Weather Sherehovo

    Today, 16 July, Monday

    Time Temperature Precipitation Wind Pressure Humidity
    00:00 +19°C° 0 mm 1 mps 741 mmHg 95%
    01:00 +19°C° 0 mm 1 mps 741 mmHg 96%
    02:00 +19°C° 0 mm 1 mps 741 mmHg 96%
    03:00 +18°C° 0 mm 2 mps 741 mmHg 96%
    04:00 +18°C° 0 mm 2 mps 741 mmHg 96%
    05:00 +18°C° 0 mm 2 mps 741 mmHg 96%
    06:00 +19°C° 0 mm 2 mps 741 mmHg 90%
    07:00 +21°C° 0 mm 2 mps 742 mmHg 85%
    08:00 +24°C° 0 mm 3 mps 742 mmHg 79%
    09:00 +25°C° 0.1 mm 3 mps 742 mmHg 71%
    10:00 +27°C° 0.1 mm 3 mps 741 mmHg 64%
    11:00 +28°C° 0.1 mm 4 mps 741 mmHg 56%
    12:00 +28°C° 0.3 mm 4 mps 741 mmHg 59%
    13:00 +28°C° 0.3 mm 4 mps 741 mmHg 62%
    14:00 +28°C° 0.3 mm 4 mps 741 mmHg 64%
    15:00 +28°C° 0.3 mm 3 mps 741 mmHg 68%
    16:00 +27°C° 0.3 mm 3 mps 741 mmHg 71%
    17:00 +27°C° 0.3 mm 2 mps 740 mmHg 74%
    18:00 +25°C° 0.1 mm 2 mps 741 mmHg 78%
    19:00 +24°C° 0.1 mm 2 mps 741 mmHg 81%
    20:00 +23°C° 0.1 mm 2 mps 741 mmHg 84%
    21:00 +21°C° 0 mm 2 mps 741 mmHg 85%
    22:00 +20°C° 0 mm 2 mps 741 mmHg 85%
    23:00 +19°C° 0 mm 2 mps 741 mmHg 86%

    Tomorrow, 17 July, Tuesday

    Time Temperature Precipitation Wind Pressure Humidity
    00:00 +19°C° 0 mm 2 mps 741 mmHg 87%
    01:00 +18°C° 0 mm 2 mps 741 mmHg 88%
    02:00 +18°C° 0 mm 3 mps 741 mmHg 88%
    03:00 +18°C° 0 mm 3 mps 740 mmHg 88%
    04:00 +18°C° 0 mm 3 mps 740 mmHg 87%
    05:00 +19°C° 0 mm 3 mps 740 mmHg 87%
    06:00 +20°C° 0 mm 3 mps 740 mmHg 80%
    07:00 +22°C° 0 mm 4 mps 740 mmHg 73%
    08:00 +25°C° 0 mm 4 mps 740 mmHg 66%
    09:00 +26°C° 0 mm 5 mps 740 mmHg 61%
    10:00 +28°C° 0 mm 5 mps 740 mmHg 56%
    11:00 +29°C° 0 mm 5 mps 740 mmHg 51%
    12:00 +29°C° 0 mm 5 mps 739 mmHg 50%
    13:00 +30°C° 0 mm 5 mps 739 mmHg 49%
    14:00 +30°C° 0 mm 5 mps 739 mmHg 48%
    15:00 +30°C° 0 mm 5 mps 739 mmHg 50%
    16:00 +29°C° 0 mm 4 mps 738 mmHg 51%
    17:00 +29°C° 0 mm 4 mps 738 mmHg 53%
    18:00 +28°C° 0 mm 4 mps 738 mmHg 59%
    19:00 +26°C° 0 mm 3 mps 738 mmHg 66%
    20:00 +24°C° 0 mm 3 mps 738 mmHg 72%
    21:00 +24°C° 0 mm 3 mps 738 mmHg 74%
    22:00 +22°C° 0 mm 3 mps 738 mmHg 76%
    23:00 +21°C° 0 mm 3 mps 738 mmHg 78%

    Day after tomorrow, 18 July, Wednesday

    Time Temperature Precipitation Wind Pressure Humidity
    00:00 +21°C° 0 mm 3 mps 738 mmHg 81%
    01:00 +20°C° 0 mm 3 mps 738 mmHg 84%
    02:00 +20°C° 0 mm 3 mps 738 mmHg 86%
    03:00 +20°C° 0.2 mm 3 mps 738 mmHg 88%
    04:00 +20°C° 0.2 mm 3 mps 738 mmHg 90%
    05:00 +20°C° 0.2 mm 3 mps 738 mmHg 92%
    06:00 +21°C° 0 mm 3 mps 738 mmHg 88%
    07:00 +22°C° 0 mm 3 mps 738 mmHg 84%
    08:00 +24°C° 0 mm 3 mps 738 mmHg 80%
    09:00 +26°C° 0.2 mm 4 mps 738 mmHg 73%
    10:00 +27°C° 0.2 mm 4 mps 738 mmHg 65%
    11:00 +29°C° 0.2 mm 4 mps 738 mmHg 57%
    12:00 +29°C° 0 mm 4 mps 738 mmHg 54%
    13:00 +30°C° 0 mm 5 mps 738 mmHg 51%
    14:00 +30°C° 0 mm 5 mps 738 mmHg 48%
    15:00 +30°C° 0 mm 4 mps 738 mmHg 50%
    16:00 +29°C° 0 mm 4 mps 738 mmHg 53%
    17:00 +29°C° 0 mm 4 mps 738 mmHg 55%
    18:00 +27°C° 0.2 mm 3 mps 738 mmHg 65%
    19:00 +25°C° 0.2 mm 3 mps 738 mmHg 76%
    20:00 +21°C° 0.2 mm 2 mps 738 mmHg 86%
    21:00 +21°C° 0 mm 2 mps 738 mmHg 88%
    22:00 +20°C° 0 mm 2 mps 738 mmHg 91%
    23:00 +19°C° 0 mm 2 mps 738 mmHg 93%

    19 July, Thursday

    Time Temperature Precipitation Wind Pressure Humidity
    00:00 +19°C° 0 mm 2 mps 738 mmHg 94%
    01:00 +18°C° 0 mm 2 mps 738 mmHg 95%
    02:00 +18°C° 0 mm 2 mps 738 mmHg 97%
    03:00 +18°C° 0 mm 2 mps 738 mmHg 96%
    04:00 +18°C° 0 mm 3 mps 738 mmHg 95%
    05:00 +18°C° 0 mm 3 mps 738 mmHg 95%
    06:00 +19°C° 0 mm 3 mps 738 mmHg 90%
    07:00 +20°C° 0 mm 3 mps 738 mmHg 85%
    08:00 +20°C° 0 mm 3 mps 738 mmHg 81%
    09:00 +21°C° 0.1 mm 3 mps 738 mmHg 80%
    10:00 +21°C° 0.1 mm 3 mps 738 mmHg 79%
    11:00 +21°C° 0.1 mm 3 mps 738 mmHg 78%
    12:00 +23°C° 0.1 mm 2 mps 738 mmHg 76%
    13:00 +24°C° 0.1 mm 2 mps 738 mmHg 74%
    14:00 +24°C° 0.1 mm 2 mps 738 mmHg 71%
    15:00 +25°C° 0.1 mm 2 mps 738 mmHg 72%
    16:00 +25°C° 0.1 mm 2 mps 738 mmHg 74%
    17:00 +25°C° 0.1 mm 2 mps 738 mmHg 75%
    18:00 +24°C° 0.2 mm 2 mps 738 mmHg 81%
    19:00 +23°C° 0.2 mm 2 mps 738 mmHg 87%
    20:00 +22°C° 0.2 mm 1 mps 738 mmHg 93%
    21:00 +21°C° 0.5 mm 1 mps 738 mmHg 94%
    22:00 +20°C° 0.5 mm 1 mps 738 mmHg 96%
    23:00 +20°C° 0.5 mm 1 mps 738 mmHg 98%

    20 July, Friday

    Time Temperature Precipitation Wind Pressure Humidity
    00:00 +19°C° 0.1 mm 1 mps 738 mmHg 98%
    01:00 +19°C° 0.1 mm 1 mps 739 mmHg 98%
    02:00 +19°C° 0.1 mm 1 mps 739 mmHg 98%
    03:00 +19°C° 0 mm 1 mps 739 mmHg 98%
    04:00 +19°C° 0 mm 1 mps 739 mmHg 98%
    05:00 +19°C° 0 mm 1 mps 739 mmHg 98%
    06:00 +21°C° 0 mm 1 mps 739 mmHg 93%
    07:00 +22°C° 0 mm 1 mps 739 mmHg 88%
    08:00 +24°C° 0 mm 1 mps 739 mmHg 83%
    09:00 +25°C° 0.3 mm 1 mps 739 mmHg 78%
    10:00 +26°C° 0.3 mm 1 mps 739 mmHg 73%
    11:00 +28°C° 0.3 mm 1 mps 739 mmHg 69%
    12:00 +27°C° 1.7 mm 1 mps 738 mmHg 71%
    13:00 +27°C° 1.7 mm 1 mps 738 mmHg 74%
    14:00 +27°C° 1.7 mm 2 mps 738 mmHg 76%
    15:00 +27°C° 0.7 mm 1 mps 738 mmHg 76%
    16:00 +27°C° 0.7 mm 1 mps 738 mmHg 77%
    17:00 +27°C° 0.7 mm 1 mps 738 mmHg 77%
    18:00 +26°C° 0.4 mm 1 mps 738 mmHg 81%
    19:00 +25°C° 0.4 mm 1 mps 738 mmHg 86%
    20:00 +23°C° 0.4 mm 1 mps 738 mmHg 91%
    21:00 +23°C° 1.6 mm 1 mps 738 mmHg 92%
    22:00 +22°C° 1.6 mm 1 mps 738 mmHg 94%
    23:00 +21°C° 1.6 mm 1 mps 738 mmHg 96%

    21 July, Saturday

    Time Temperature Precipitation Wind Pressure Humidity
    00:00 +21°C° 0.3 mm 1 mps 738 mmHg 96%
    01:00 +20°C° 0.3 mm 1 mps 738 mmHg 97%
    02:00 +20°C° 0.3 mm 1 mps 738 mmHg 97%
    03:00 +20°C° 0 mm 1 mps 738 mmHg 97%
    04:00 +20°C° 0 mm 1 mps 738 mmHg 97%
    05:00 +20°C° 0 mm 1 mps 738 mmHg 97%
    06:00 +22°C° 0 mm 1 mps 739 mmHg 92%
    07:00 +24°C° 0 mm 1 mps 739 mmHg 87%
    08:00 +25°C° 0 mm 1 mps 739 mmHg 82%
    09:00 +26°C° 0.6 mm 1 mps 739 mmHg 78%
    10:00 +28°C° 0.6 mm 1 mps 739 mmHg 74%
    11:00 +29°C° 0.6 mm 1 mps 738 mmHg 69%
    12:00 +29°C° 1 mm 1 mps 738 mmHg 70%
    13:00 +29°C° 1 mm 1 mps 738 mmHg 70%
    14:00 +29°C° 1 mm 1 mps 738 mmHg 70%
    15:00 +28°C° 2.2 mm 1 mps 738 mmHg 76%
    16:00 +27°C° 2.2 mm 1 mps 738 mmHg 82%
    17:00 +27°C° 2.2 mm 1 mps 738 mmHg 88%
    18:00 +25°C° 0.3 mm 1 mps 738 mmHg 89%
    19:00 +24°C° 0.3 mm 1 mps 738 mmHg 91%
    20:00 +23°C° 0.3 mm 1 mps 738 mmHg 92%
    21:00 +23°C° 0.1 mm 1 mps 738 mmHg 93%
    22:00 +22°C° 0.1 mm 1 mps 738 mmHg 94%
    23:00 +22°C° 0.1 mm 1 mps 738 mmHg 95%
    Show more